Location: Unspecified
(0.0000°N, 1.0000°E)
Time: 22:46:49
(UTC+02:00)

Amateur Radio Satellites - All Passes

Search period start: 30 July 2016 22:16
Search period end: 31 July 2016 22:16
Location: Unspecified, 0.0000°N, 1.0000°E

Satellite Date Start Highest point End Downlink Frequencies (MHz)
Time Altitude Azimuth
COMPASS 1 30 Jul 22:18:32 22:22:39 54° 258° (WSW) 22:26:44 437.405
DELFI C3 30 Jul 22:35:49 22:38:23 16° 79° (ENE) 22:40:56 145.870
YUBILEINY 30 Jul 22:39:07 22:47:52 78° 267° (W) 22:56:37 435.215
JUGNU 30 Jul 22:39:57 22:45:31 40° 340° (NNW) 22:51:06 437.505
AAUSAT CUBESAT 2 30 Jul 22:43:28 22:47:11 31° 259° (WSW) 22:50:52 437.432
FUNcube-1 30 Jul 22:50:37 22:55:03 81° 78° (ENE) 22:59:33 145.935
ZACube-1 30 Jul 22:53:41 22:58:07 84° 259° (WSW) 23:02:38 437.345
PRISM 30 Jul 22:59:25 23:02:30 21° 282° (WNW) 23:05:37 437.425
UWE-3 30 Jul 23:02:03 23:06:07 36° 259° (W) 23:10:16 435.000/436.395/437.385
SRMSAT 30 Jul 23:14:21 23:20:23 80° 159° (SSE) 23:26:24 437.500
TIGRISAT 30 Jul 23:20:40 23:24:16 25° 101° (ESE) 23:27:50 435.000
Oscar 11 30 Jul 23:28:52 23:32:27 25° 258° (WSW) 23:36:01 145.826/435.025
HUMSAT D 30 Jul 23:35:24 23:39:34 51° 78° (ENE) 23:43:45 437.325/437.525
UNISAT 6 30 Jul 23:37:40 23:41:56 48° 102° (ESE) 23:46:08 437.425
Cosmos 2491 30 Jul 23:38:18 23:44:51 24° 273° (W) 23:51:24 435.465 / 435.565
M-CUBED/EXP-1 PRIME 30 Jul 23:45:58 23:49:22 68° 255° (WSW) 23:52:59 437.505
Cosmos 2504 30 Jul 23:55:45 00:03:07 69° 267° (W) 00:10:15 435.465 / 435.565
AUBIESAT-1 31 Jul 00:08:53 00:12:06 36° 255° (WSW) 00:15:31 437.475
DELFI C3 31 Jul 00:10:24 00:12:57 16° 258° (WSW) 00:15:31 145.870
ANTELSAT 31 Jul 00:15:59 00:20:14 45° 282° (WNW) 00:24:23 437.575/2403.000
QB50P1 31 Jul 00:24:38 00:27:37 19° 102° (ESE) 00:30:37 145.935-145.965
AISAT 31 Jul 00:25:23 00:27:12 12° 78° (ENE) 00:29:01 437.250
50 SAT 31 Jul 00:30:58 00:32:40 13° 79° (ENE) 00:34:20 437.505
JUGNU 31 Jul 00:31:05 00:34:58 18° 346° (NNW) 00:38:52 437.505
POPSAT HIP 1 31 Jul 00:31:06 00:34:27 23° 102° (ESE) 00:37:48 437.405
AO-85 31 Jul 00:50:31 00:54:22 84° 249° (WSW) 00:58:11 145.980
QB50P2 31 Jul 00:52:14 00:56:22 53° 102° (ESE) 01:00:30 145.880/145.840
PHONESAT 2.4 31 Jul 00:52:37 00:55:39 68° 43° (NE) 00:58:41 2401.200-2431.200
POLYITAN 1 31 Jul 00:54:52 00:59:01 54° 102° (ESE) 01:03:09 437.675
TIGRISAT 31 Jul 00:58:32 01:00:41 13° 283° (WNW) 01:02:49 435.000
SRMSAT 31 Jul 01:04:08 01:09:39 38° 340° (NNW) 01:15:10 437.500
CUBEBUG 1 31 Jul 01:04:55 01:09:09 55° 78° (ENE) 01:13:21 437.445
ESTCUBE 1 31 Jul 01:13:35 01:18:03 63° 258° (WSW) 01:22:29 437.505/2401.250
VELOX 1 31 Jul 01:13:50 01:18:10 61° 78° (ENE) 01:22:29 145.980
JAS-2 31 Jul 01:29:44 01:35:29 42° 105° (ESE) 01:41:57 435.910
NANOSAT C BR1 31 Jul 01:34:26 01:38:24 40° 282° (WNW) 01:42:22 145.865
BUGSAT 1 31 Jul 01:35:00 01:39:10 61° 101° (ESE) 01:43:19 437.445
DUCHIFAT 1 31 Jul 01:36:47 01:40:44 40° 282° (WNW) 01:44:43 145.980
DX 1 31 Jul 01:44:58 01:49:17 71° 258° (WSW) 01:53:35 434.975-435.025
UKube-1 31 Jul 01:51:11 01:55:29 79° 259° (W) 01:59:46 .
AISAT 31 Jul 01:59:42 02:03:24 27° 258° (WSW) 02:07:06 437.250
QB50P1 31 Jul 02:00:24 02:03:08 17° 282° (WNW) 02:05:52 145.935-145.965
50 SAT 31 Jul 02:03:32 02:06:01 17° 258° (WSW) 02:08:30 437.505
POPSAT HIP 1 31 Jul 02:07:49 02:09:58 14° 282° (WNW) 02:12:07 437.405
SPROUT 31 Jul 02:17:06 02:21:06 41° 258° (WSW) 02:25:06 437.525
AIST 1 31 Jul 02:21:46 02:25:42 33° 266° (W) 02:29:41
JUGNU 31 Jul 02:24:00 02:24:58 10° 355° (N) 02:25:56 437.505
Oscar 19 31 Jul 02:31:43 02:36:26 36° 103° (ESE) 02:41:10 437.125/150
Gurwin Techsat 1B 31 Jul 02:45:18 02:48:51 18° 103° (ESE) 02:52:23 435.225
GONETS M04 31 Jul 02:50:17 02:56:25 21° 87° (E) 03:02:32
SRMSAT 31 Jul 02:55:33 02:59:17 17° 346° (NNW) 03:03:00 437.500
TISAT 1 31 Jul 02:57:51 03:02:02 72° 258° (WSW) 03:06:11 437.305
SWISSCUBE 31 Jul 03:15:17 03:19:09 24° 78° (ENE) 03:22:59 437.505
JAS-2 31 Jul 03:16:31 03:20:25 17° 280° (W) 03:24:36 435.910
BEESAT 31 Jul 03:35:34 03:40:02 39° 77° (ENE) 03:44:29 436.000
CUSAT 1 31 Jul 03:41:40 03:47:15 46° 98° (E) 03:51:30 437.405
ITUPSAT 1 31 Jul 04:01:00 04:05:50 85° 78° (ENE) 04:10:38 437.325
Oscar 19 31 Jul 04:12:54 04:15:28 14° 283° (WNW) 04:18:03 437.125/150
JUGNU 31 Jul 04:13:39 04:15:12 11° 6° (N) 04:16:46 437.505
ITAMSAT 1 31 Jul 04:14:27 04:19:28 53° 103° (ESE) 04:24:29 435.822/435.867
Gurwin Techsat 1B 31 Jul 04:24:00 04:28:30 29° 283° (WNW) 04:33:02 435.225
RS-15 31 Jul 04:33:29 04:40:00 17° 112° (ESE) 04:46:35 29.354- 29.394
Cosmos 2499 31 Jul 04:35:52 04:43:01 79° 267° (W) 04:50:04 435.465 / 435.565
DANDE 31 Jul 04:39:48 04:47:12 79° 95° (E) 04:52:50 436.750
GONETS M04 31 Jul 04:44:26 04:52:49 49° 267° (W) 05:01:16
SWISSCUBE 31 Jul 04:53:31 04:56:40 17° 257° (WSW) 04:59:48 437.505
AO-7 31 Jul 05:08:04 05:16:19 72° 106° (ESE) 05:24:34 29.400- 29.500
BEESAT 31 Jul 05:16:56 05:17:31 10° 257° (WSW) 05:18:06 436.000
MOZHAYETS 4 31 Jul 05:17:39 05:22:16 67° 78° (ENE) 05:26:52
PCSat 31 Jul 05:21:43 05:24:11 13° 70° (ENE) 05:26:39 145.827
BEESAT 3 31 Jul 05:27:23 05:31:17 72° 248° (WSW) 05:35:12 437.485
BEESAT 2 31 Jul 05:41:42 05:45:39 75° 68° (ENE) 05:49:36 435.950
SO-50 31 Jul 05:50:26 05:51:48 11° 112° (ESE) 05:53:09 436.795
KKS-1 31 Jul 05:50:40 05:54:54 45° 258° (WSW) 05:59:07 437.445
HORYU 2 31 Jul 05:51:41 05:55:00 21° 102° (ESE) 05:58:18 437.375
JUGNU 31 Jul 06:00:52 06:05:07 20° 15° (NNE) 06:09:20 437.505
STARS 31 Jul 06:18:06 06:22:17 46° 258° (WSW) 06:26:29 437.465
BRITE-PL 31 Jul 06:22:44 06:25:31 14° 103° (ESE) 06:28:21 437.365/2234.400
NOAA 15 31 Jul 06:32:48 06:34:15 11° 104° (ESE) 06:35:42 137.62
SRMSAT 31 Jul 06:38:13 06:39:49 11° 7° (N) 06:41:27 437.500
RS-15 31 Jul 06:41:01 06:51:55 72° 291° (WNW) 07:03:22 29.354- 29.394
ISS 31 Jul 06:47:10 06:50:16 44° 234° (SW) 06:53:24 145.825
CUBESAT XI-V 31 Jul 06:48:10 06:52:50 75° 78° (ENE) 06:57:25 437.345
LilacSat-2 31 Jul 06:58:29 06:59:31 11° 102° (ESE) 07:00:33 437.200
PCSat 31 Jul 07:02:19 07:07:19 39° 251° (WSW) 07:12:20 145.827
GOMX 1 31 Jul 07:03:27 07:06:53 17° 102° (ESE) 07:10:17 467.674
AO-7 31 Jul 07:05:01 07:08:38 13° 288° (WNW) 07:12:17 29.400- 29.500
SO-50 31 Jul 07:27:32 07:32:02 40° 292° (WNW) 07:36:35 436.795
HORYU 2 31 Jul 07:28:27 07:31:17 17° 282° (WNW) 07:34:07 437.375
O/OREOS (USA 219) 31 Jul 07:28:56 07:32:38 24° 76° (ENE) 07:36:20 437.305
NOAA 18 31 Jul 07:33:35 07:38:49 46° 103° (ESE) 07:44:01 137.9125
Cubesat XI-IV 31 Jul 07:39:56 07:45:07 55° 102° (ESE) 07:50:19 437.490
JUGNU 31 Jul 07:48:47 07:54:28 47° 21° (NNE) 08:00:07 437.505
BRITE-PL 31 Jul 07:58:29 08:03:35 42° 281° (W) 08:08:56 437.365/2234.400
CUTE-I 31 Jul 08:02:06 08:07:23 79° 283° (WNW) 08:12:42 437.470
NOAA 15 31 Jul 08:08:42 08:13:43 45° 283° (WNW) 08:18:46 137.62
DOVE 4 31 Jul 08:11:38 08:16:39 44° 101° (ESE) 08:21:33 437.250
AIST 2 31 Jul 08:17:31 08:21:23 38° 248° (WSW) 08:25:16 435.215
STRAND 1 31 Jul 08:20:46 08:25:24 34° 77° (ENE) 08:30:00 437.568
SRMSAT 31 Jul 08:25:31 08:29:50 21° 16° (NNE) 08:34:09 437.500
LilacSat-2 31 Jul 08:30:39 08:33:33 21° 281° (WNW) 08:36:28 437.200
GOMX 1 31 Jul 08:39:44 08:44:37 34° 282° (WNW) 08:49:34 467.674
O/OREOS (USA 219) 31 Jul 09:09:12 09:11:45 15° 255° (WSW) 09:14:19 437.305
AAUSAT CUBESAT 2 31 Jul 09:14:48 09:15:29 10° 102° (ESE) 09:16:11 437.432
NOAA 18 31 Jul 09:17:18 09:19:10 12° 284° (WNW) 09:21:01 137.9125
YUBILEINY 31 Jul 09:18:06 09:24:56 25° 93° (E) 09:31:43 435.215
PRISM 31 Jul 09:27:56 09:30:23 16° 78° (ENE) 09:32:50 437.425
CINEMA 3 31 Jul 09:29:42 09:34:34 88° 281° (WNW) 09:39:15 145.822/145.860
CANX-2 31 Jul 09:35:07 09:39:18 80° 280° (W) 09:43:31 2200.000
JUGNU 31 Jul 09:37:40 09:43:31 62° 201° (SSW) 09:49:19 437.505
UWE-3 31 Jul 09:39:15 09:41:21 13° 101° (E) 09:43:25 435.000/436.395/437.385
CUTE 1.7 + AOD 2 31 Jul 09:47:43 09:51:51 62° 282° (WNW) 09:56:01 437.475
HO-68 31 Jul 09:50:06 09:57:14 76° 285° (WNW) 10:04:24 435.675
DOVE 4 31 Jul 09:52:09 09:53:58 12° 283° (WNW) 09:55:47 437.250
STRAND 1 31 Jul 10:01:34 10:04:17 14° 257° (WSW) 10:06:59 437.568
Oscar 11 31 Jul 10:02:23 10:05:12 17° 102° (ESE) 10:08:02 145.826/435.025
CUBEBUG 2 31 Jul 10:08:13 10:12:38 63° 101° (E) 10:16:55 437.445
Cosmos 2491 31 Jul 10:13:12 10:22:00 82° 88° (E) 10:30:51 435.465 / 435.565
SRMSAT 31 Jul 10:13:34 10:19:18 51° 21° (NNE) 10:25:02 437.500
Cosmos 2504 31 Jul 10:15:27 10:20:55 18° 92° (E) 10:26:27 435.465 / 435.565
SEEDS 31 Jul 10:19:21 10:23:04 32° 281° (WNW) 10:26:48 437.485
COMPASS 1 31 Jul 10:22:47 10:26:44 46° 281° (WNW) 10:30:43 437.405
DELFI C3 31 Jul 10:34:42 10:37:06 16° 102° (ESE) 10:39:29 145.870
AAUSAT CUBESAT 2 31 Jul 10:47:12 10:50:41 27° 281° (WNW) 10:54:13 437.432
ANTELSAT 31 Jul 10:55:04 10:56:49 12° 77° (ENE) 10:58:34 437.575/2403.000
FUNcube-1 31 Jul 11:00:32 11:04:47 72° 282° (WNW) 11:08:57 145.935
PRISM 31 Jul 11:02:34 11:05:26 18° 258° (WSW) 11:08:17 437.425
ZACube-1 31 Jul 11:03:59 11:08:11 58° 282° (WNW) 11:12:19 437.345
YUBILEINY 31 Jul 11:13:19 11:21:18 40° 273° (W) 11:29:21 435.215
UWE-3 31 Jul 11:14:03 11:17:34 24° 282° (WNW) 11:21:02 435.000/436.395/437.385
AO-85 31 Jul 11:25:02 11:26:41 11° 112° (ESE) 11:28:21 145.980
JUGNU 31 Jul 11:28:04 11:32:44 24° 197° (SSW) 11:37:22 437.505
TIGRISAT 31 Jul 11:32:53 11:37:06 39° 78° (ENE) 11:41:24 435.000
Oscar 11 31 Jul 11:38:04 11:41:04 19° 282° (WNW) 11:44:05 145.826/435.025
HUMSAT D 31 Jul 11:40:20 11:44:21 60° 101° (E) 11:48:22 437.325/437.525
M-CUBED/EXP-1 PRIME 31 Jul 11:45:23 11:49:56 74° 285° (WNW) 11:54:13 437.505
UNISAT 6 31 Jul 11:50:26 11:54:57 77° 79° (E) 11:59:34 437.425
SRMSAT 31 Jul 12:02:41 12:08:30 58° 201° (SSW) 12:14:20 437.500
Cosmos 2504 31 Jul 12:05:29 12:13:50 57° 273° (W) 12:22:28 435.465 / 435.565
AUBIESAT-1 31 Jul 12:07:52 12:12:07 44° 286° (WNW) 12:16:09 437.475
DELFI C3 31 Jul 12:09:05 12:11:40 17° 281° (W) 12:14:16 145.870
PHONESAT 2.4 31 Jul 12:19:59 12:22:47 34° 137° (SE) 12:25:34 2401.200-2431.200
ANTELSAT 31 Jul 12:29:14 12:33:13 31° 259° (WSW) 12:37:17 437.575/2403.000
QB50P1 31 Jul 12:30:25 12:33:45 23° 78° (ENE) 12:37:05 145.935-145.965
AISAT 31 Jul 12:35:42 12:38:49 19° 102° (ESE) 12:41:56 437.250
POPSAT HIP 1 31 Jul 12:37:01 12:40:38 28° 78° (ENE) 12:44:15 437.405
AIST 1 31 Jul 12:53:24 12:55:05 12° 94° (E) 12:56:45
QB50P2 31 Jul 12:58:30 13:02:42 67° 79° (ENE) 13:06:55 145.880/145.840
POLYITAN 1 31 Jul 13:01:07 13:05:20 69° 78° (ENE) 13:09:33 437.675
AO-85 31 Jul 13:01:46 13:06:57 50° 292° (WNW) 13:12:10 145.980
JAS-2 31 Jul 13:05:09 13:10:11 23° 80° (E) 13:14:48 435.910
CUBEBUG 1 31 Jul 13:14:43 13:19:08 79° 101° (E) 13:23:35 437.445
JUGNU 31 Jul 13:20:17 13:22:27 12° 189° (S) 13:24:37 437.505
VELOX 1 31 Jul 13:25:14 13:29:42 90° 284° (WNW) 13:34:11 145.980
ESTCUBE 1 31 Jul 13:27:49 13:32:00 39° 282° (WNW) 13:36:14 437.505/2401.250
BUGSAT 1 31 Jul 13:38:12 13:42:12 67° 78° (ENE) 13:46:14 437.445
NANOSAT C BR1 31 Jul 13:40:25 13:44:12 33° 258° (WSW) 13:48:00 145.865
DUCHIFAT 1 31 Jul 13:42:27 13:46:14 33° 258° (WSW) 13:50:02 145.980
50 SAT 31 Jul 13:52:31 13:55:28 24° 281° (WNW) 13:58:28 437.505
SRMSAT 31 Jul 13:53:19 13:57:55 23° 197° (SSW) 14:02:33 437.500
DX 1 31 Jul 13:54:35 13:58:50 51° 282° (WNW) 14:03:06 434.975-435.025
UKube-1 31 Jul 13:59:40 14:03:55 59° 282° (WNW) 14:08:12 .
QB50P1 31 Jul 14:07:09 14:09:16 14° 258° (WSW) 14:11:23 145.935-145.965
AISAT 31 Jul 14:11:50 14:15:01 19° 282° (WNW) 14:18:13 437.250
POPSAT HIP 1 31 Jul 14:15:00 14:16:08 11° 258° (WSW) 14:17:18 437.405
SPROUT 31 Jul 14:24:37 14:28:27 32° 282° (WNW) 14:32:18 437.525
AIST 1 31 Jul 14:29:02 14:32:23 23° 274° (W) 14:35:44
JAS-2 31 Jul 14:49:03 14:55:01 32° 255° (WSW) 15:00:24 435.910
Cosmos 2499 31 Jul 14:55:00 14:59:42 15° 93° (E) 15:04:24 435.465 / 435.565
TISAT 1 31 Jul 15:03:07 15:07:16 60° 283° (WNW) 15:11:27 437.305
Oscar 19 31 Jul 15:05:03 15:10:12 88° 256° (WSW) 15:15:18 437.125/150
GONETS M04 31 Jul 15:22:04 15:30:07 42° 93° (E) 15:38:06
Gurwin Techsat 1B 31 Jul 15:22:12 15:27:22 52° 77° (ENE) 15:32:31 435.225
SWISSCUBE 31 Jul 15:36:29 15:41:00 46° 102° (ESE) 15:45:33 437.505
DANDE 31 Jul 15:44:21 15:44:57 10° 93° (E) 15:45:33 436.750
SRMSAT 31 Jul 15:45:41 15:47:53 12° 188° (S) 15:50:04 437.500
AO-7 31 Jul 15:47:01 15:50:24 13° 72° (ENE) 15:53:47 29.400- 29.500
BEESAT 31 Jul 15:57:06 16:01:50 78° 101° (ESE) 16:06:36 436.000
RS-15 31 Jul 16:16:22 16:22:39 15° 66° (ENE) 16:28:49 29.354- 29.394
CUSAT 1 31 Jul 16:16:35 16:21:18 59° 263° (W) 16:27:33 437.405
ITUPSAT 1 31 Jul 16:23:28 16:28:01 48° 282° (WNW) 16:32:36 437.325
KKS-1 31 Jul 16:29:34 16:31:02 11° 103° (ESE) 16:32:30 437.445
Cosmos 2499 31 Jul 16:43:45 16:52:23 65° 273° (W) 17:01:09 435.465 / 435.565
ITAMSAT 1 31 Jul 16:49:23 16:54:31 57° 257° (WSW) 16:59:38 435.822/435.867
STARS 31 Jul 16:56:24 16:57:04 10° 103° (ESE) 16:57:44 437.465
JUGNU 31 Jul 16:59:36 17:02:42 14° 168° (SSE) 17:05:48 437.505
BEESAT 3 31 Jul 17:19:49 17:23:41 69° 292° (WNW) 17:27:32 437.485
GONETS M04 31 Jul 17:20:00 17:26:32 24° 273° (W) 17:33:04
DANDE 31 Jul 17:23:42 17:27:03 26° 259° (W) 17:31:15 436.750
MOZHAYETS 4 31 Jul 17:34:21 17:38:53 72° 281° (W) 17:43:25
AO-7 31 Jul 17:34:23 17:42:43 74° 254° (WSW) 17:51:02 29.400- 29.500
BEESAT 2 31 Jul 17:35:16 17:39:11 80° 111° (ESE) 17:43:06 435.950
PCSat 31 Jul 17:55:20 18:00:23 41° 110° (ESE) 18:05:27 145.827
SO-50 31 Jul 18:01:37 18:04:38 18° 67° (ENE) 18:07:36 436.795
KKS-1 31 Jul 18:03:24 18:07:19 31° 282° (WNW) 18:11:16 437.445
HORYU 2 31 Jul 18:03:30 18:07:26 31° 78° (ENE) 18:11:23 437.375
ISS 31 Jul 18:20:39 18:23:54 81° 305° (NW) 18:27:08 145.825
RS-15 31 Jul 18:22:53 18:35:06 83° 249° (WSW) 18:46:48 29.354- 29.394
STARS 31 Jul 18:29:11 18:33:09 32° 282° (WNW) 18:37:05 437.465
Cubesat XI-IV 31 Jul 18:44:30 18:44:55 10° 77° (ENE) 18:45:21 437.490
JUGNU 31 Jul 18:47:05 18:52:15 31° 161° (SSE) 18:57:27 437.505
BRITE-PL 31 Jul 18:49:19 18:52:33 21° 79° (E) 18:55:43 437.365/2234.400
CUTE-I 31 Jul 19:03:10 19:07:01 20° 77° (ENE) 19:10:49 437.470
CUBESAT XI-V 31 Jul 19:06:22 19:10:56 61° 281° (WNW) 19:15:34 437.345
NOAA 15 31 Jul 19:07:02 19:11:40 32° 77° (ENE) 19:16:16 137.62
SRMSAT 31 Jul 19:25:02 19:28:30 16° 167° (SSE) 19:31:59 437.500
GOMX 1 31 Jul 19:27:07 19:30:26 23° 78° (ENE) 19:33:44 467.674
O/OREOS (USA 219) 31 Jul 19:39:31 19:43:43 40° 104° (ESE) 19:47:54 437.305
PCSat 31 Jul 19:41:17 19:43:32 13° 290° (WNW) 19:45:47 145.827
SO-50 31 Jul 19:41:38 19:44:50 20° 248° (WSW) 19:48:00 436.795
HORYU 2 31 Jul 19:42:16 19:43:43 11° 257° (WSW) 19:45:09 437.375
AIST 2 31 Jul 20:16:07 20:19:43 30° 292° (WNW) 20:23:19 435.215
NOAA 18 31 Jul 20:17:50 20:23:13 55° 257° (WSW) 20:28:35 137.9125
Cubesat XI-IV 31 Jul 20:19:30 20:24:41 50° 257° (WSW) 20:29:52 437.490
LilacSat-2 31 Jul 20:24:49 20:28:04 26° 259° (W) 20:31:19 437.200
BRITE-PL 31 Jul 20:28:35 20:30:48 14° 257° (WSW) 20:32:57 437.365/2234.400
DOVE 4 31 Jul 20:32:45 20:36:54 75° 77° (ENE) 20:41:09 437.250
JUGNU 31 Jul 20:35:26 20:41:23 84° 159° (SSE) 20:47:22 437.505
CUTE-I 31 Jul 20:42:18 20:46:46 27° 257° (WSW) 20:51:14 437.470
RS-15 31 Jul 20:45:41 20:47:20 10° 247° (WSW) 20:48:58 29.354- 29.394
NOAA 15 31 Jul 20:48:03 20:51:09 16° 257° (WSW) 20:54:16 137.62
SEEDS 31 Jul 20:51:47 20:53:02 11° 78° (ENE) 20:54:17 437.485
STRAND 1 31 Jul 20:52:50 20:57:55 86° 100° (E) 21:03:02 437.568
Cosmos 2491 31 Jul 20:53:57 20:59:27 18° 93° (E) 21:04:54 435.465 / 435.565
GOMX 1 31 Jul 21:06:48 21:08:18 12° 258° (WSW) 21:09:47 467.674
SRMSAT 31 Jul 21:12:50 21:18:13 34° 161° (SSE) 21:23:37 437.500
AAUSAT CUBESAT 2 31 Jul 21:17:33 21:19:13 12° 79° (ENE) 21:20:53 437.432
PRISM 31 Jul 21:30:18 21:33:03 17° 102° (ESE) 21:35:50 437.425
CANX-2 31 Jul 21:41:37 21:45:53 63° 259° (W) 21:50:07 2200.000
HO-68 31 Jul 21:41:38 21:48:50 89° 260° (W) 21:56:01 435.675
CINEMA 3 31 Jul 21:46:09 21:50:20 51° 259° (W) 21:54:40 145.822/145.860
UWE-3 31 Jul 21:48:57 21:52:14 20° 78° (ENE) 21:55:35 435.000/436.395/437.385
YUBILEINY 31 Jul 21:50:04 21:58:29 51° 87° (E) 22:06:50 435.215
CUTE 1.7 + AOD 2 31 Jul 21:54:09 21:58:19 49° 258° (WSW) 22:02:27 437.475
